Weather History for Pian Rosa, Italy

Change the Weather History Date:

Friday, May 10, 2013

  Actual Average Record
Temperature  
Mean Temperature 26 °F -  
Max Temperature 30 °F 31 °F 41 °F (1998)
Min Temperature 21 °F 20 °F 8 °F (2004)
Degree Days  
Heating Degree Days 40    
Moisture  
Dew Point 23 °F    
Average Humidity 88    
Maximum Humidity 93    
Minimum Humidity 77    
Precipitation  
Precipitation 0.08 in - - ()
Sea Level Pressure  
Sea Level Pressure 30.08 in    
Wind  
Wind Speed 11 mph ()    
Max Wind Speed 22 mph    
Max Gust Speed -    
Visibility 1.0 miles    
Events Fog , Snow    
Averages and records for this station are not official NWS values.
T = Trace of Precipitation, MM = Missing Value Source: Averaged Metar Reports

Daily Weather History Graph

Daily Weather History Graph

Search for Another Location

Airport:

Trip Planner

Search our weather history database for the weather conditions in past years. The results will help you decide how hot, cold, wet, or windy it might be!

Date:

Astronomy

May. 10, 2013 Rise Set
Actual Time 6:03 AM CEST 8:48 PM CEST
Civil Twilight 5:29 AM CEST 9:22 PM CEST
Nautical Twilight 4:45 AM CEST 10:06 PM CEST
Astronomical Twilight 3:55 AM CEST 10:57 PM CEST
Moon 6:16 AM CEST (5/10) 9:24 PM CEST (5/10)
Length of Visible Light 15h 53m
Length of Day
14h 45m
New Moon, 0% of the Moon is Illuminated
May 10
New Moon
May 18
First Quarter
May 25
Full
May 31
Last Quarter
Jun 8
New

Hourly Weather History & Observations

Time (CEST) Temp. Windchill Dew Point Humidity Pressure Visibility Wind Dir Wind Speed Gust Speed Precip Events Conditions
12:55 AM 28.4 °F 15.1 °F 24.8 °F 86% 30.15 in 0.1 mi SSW 20.7 mph - N/A Fog , Snow Light Snow
1:55 AM 28.4 °F 19.7 °F 24.8 °F 86% 30.12 in 0.1 mi South 9.2 mph - N/A Fog , Snow Snow
2:00 AM 28 °F - 25 °F 82%  in 0 mi South 9.2 mph - - Snow Snow
2:55 AM 28.4 °F 17.5 °F 24.8 °F 86% 30.12 in 0.1 mi South 13.8 mph - N/A Fog , Snow Light Snow
3:55 AM 28.4 °F 16.6 °F 24.8 °F 86% 30.09 in 0.2 mi South 16.1 mph - N/A Fog , Snow Light Snow
4:55 AM 28.4 °F 21.2 °F 24.8 °F 86% 30.09 in 0.1 mi SW 6.9 mph - N/A Fog , Snow Light Snow
5:00 AM 28 °F - 25 °F 83%  in 0 mi SW 6.9 mph - - Snow Light Snow
5:55 AM 28.4 °F 19.7 °F 23.0 °F 80% 30.09 in 0.1 mi SSW 9.2 mph - N/A Fog , Snow Light Snow
6:55 AM 28.4 °F 22.2 °F 24.8 °F 86% 30.09 in 0.1 mi SW 5.8 mph - N/A Fog , Snow Light Snow
7:55 AM 28.4 °F 22.2 °F 23.0 °F 80% 30.09 in 0.1 mi SSW 5.8 mph - N/A Fog , Snow Light Snow
8:00 AM 28 °F - 24 °F 77%  in 0 mi SSW 5.8 mph - - Snow Light Snow
8:55 AM 24.8 °F 13.4 °F 23.0 °F 93% 30.06 in 0.1 mi NE 12.7 mph - N/A Fog , Snow Light Snow
9:55 AM 24.8 °F 10.3 °F 23.0 °F 93% 30.06 in 0.2 mi ENE 20.7 mph - N/A Fog , Snow Light Snow
10:55 AM 24.8 °F 11.5 °F 23.0 °F 93% 30.06 in 0.5 mi NE 17.3 mph - N/A Fog Light Freezing Fog
11:00 AM 25 °F - 22 °F 86%  in 0 mi NE 17.3 mph - - Fog Heavy Fog
11:55 AM 24.8 °F 14.6 °F 23.0 °F 93% 30.09 in 6.2 mi NE 10.4 mph - N/A   Partly Cloudy
12:55 PM 24.8 °F 16.9 °F 23.0 °F 93% 30.09 in 6.2 mi NE 6.9 mph - N/A   Scattered Clouds
1:55 PM 30.2 °F 26.7 °F 28.4 °F 93% 30.09 in 6.2 mi SW 3.5 mph - N/A   Mostly Cloudy
2:00 PM 30 °F - 28 °F 90%  in 6 mi SW 3.5 mph - -   Partly Cloudy
2:55 PM 26.6 °F 17.5 °F 24.8 °F 93% 30.09 in 3.1 mi NE 9.2 mph - N/A   Mostly Cloudy
3:55 PM 24.8 °F 14.0 °F 23.0 °F 93% 30.09 in 0.5 mi ENE 11.5 mph - N/A Fog Light Freezing Fog
4:55 PM 24.8 °F 13.4 °F 23.0 °F 93% 30.06 in 0.6 mi ENE 12.7 mph - N/A Fog Light Freezing Fog
5:00 PM 25 °F - 24 °F 92%  in 1 mi ENE 12.7 mph - - Fog Heavy Fog
5:55 PM 23.0 °F - 21.2 °F 93% 30.06 in 0.6 mi Calm Calm - N/A Fog Light Freezing Fog
6:55 PM 24.8 °F 11.5 °F 21.2 °F 86% 30.06 in 0.3 mi NE 17.3 mph - N/A Fog Light Freezing Fog
7:55 PM 23.0 °F 8.7 °F 21.2 °F 93% 30.04 in 0.2 mi ENE 18.4 mph - N/A Fog , Snow Light Snow
8:00 PM 23 °F - 21 °F 87%  in 0 mi ENE 18.4 mph - - Snow Light Snow
8:55 PM 21.2 °F 5.2 °F 19.4 °F 93% 30.04 in 0.5 mi ENE 21.9 mph - N/A Fog Light Freezing Fog
9:55 PM 21.2 °F 6.8 °F 19.4 °F 93% 30.06 in 0.1 mi NE 17.3 mph - N/A Fog , Snow Light Snow
10:55 PM 21.2 °F 6.4 °F 17.6 °F 86% 30.06 in 0.1 mi ENE 18.4 mph - N/A Fog , Snow Light Snow
11:00 PM 21 °F - 18 °F 84%  in 0 mi ENE 18.4 mph - - Snow Light Snow
11:55 PM 21.2 °F 6.4 °F 17.6 °F 86% 30.06 in 0.1 mi ENE 18.4 mph - N/A Fog Light Freezing Fog